Search the data

BODC Cruise Metadata Report for RRS John Biscoe cruise JB05

Introduction

This report collates information from the BODC cruise inventory and oceanographic databases. It presents

Cruise Inventory Information

Long name RRS John Biscoe cruise JB05
Short name JB05
Objectives and Narrative
Ship RRS John Biscoe
Departure Port
Departure Date 1984-12-31
Arrival Port
Arrival Date 1985-03-29
Principal Scientist(s)
Responsible Organisation British Antarctic Survey
Associated Project(s)
IHB Sea Areas Visited
Marsden Squares Visited
Work Area Description
Work Area Bounding Polygon
Southern Limit unknown
Northern Limit unknown
Western Limit unknown
Eastern Limit unknown

Cruise Inventory Datasets

No information on datasets is currently available for this cruise

Cruise Inventory Mooring/Buoy Operations

No information on datasets is currently available

Summary of BODC Data Holdings for the Cruise

National Oceanographic Database

Summary

# Series Instrument Description Parameters
75 CTD/STD cast Salinity of the water column
Temperature of the water column
Vertical spatial coordinates

Note: Parameter terms are taken from the BODC Parameter Discovery Vocabulary XML (SKOS)

Full List

BODC Reference Instrument Description Date/Time Location  
72747 CTD/STD cast 1985-01-16 13:15Z 61° 31' S, 54° 16' W Click for more
72760 CTD/STD cast 1985-01-17 06:09Z 62° 30' S, 54° 13' W Click for more
72827 CTD/STD cast 1985-01-19 04:30Z 61° 29' S, 56° 5' W Click for more
72888 CTD/STD cast 1985-01-21 01:57Z 62° 58' S, 58° 57' W Click for more
72907 CTD/STD cast 1985-01-21 08:18Z 62° 44' S, 59° 7' W Click for more
72919 CTD/STD cast 1985-01-21 14:55Z 62° 30' S, 59° 15' W Click for more
72920 CTD/STD cast 1985-01-21 22:42Z 62° 50' S, 60° 18' W Click for more
72932 CTD/STD cast 1985-01-22 04:24Z 63° 0' S, 60° 10' W Click for more
73068 CTD/STD cast 1985-01-26 08:32Z 63° 0' S, 63° 57' W Click for more
73148 CTD/STD cast 1985-01-31 07:00Z 60° 30' S, 54° 13' W Click for more
73265 CTD/STD cast 1985-02-05 04:30Z 61° 0' S, 64° 10' W Click for more
73289 CTD/STD cast 1985-02-06 01:15Z 62° 7' S, 63° 14' W Click for more
275827 CTD/STD cast 1985-01-14 09:20Z to 1985-01-14 12:20Z 62° 11' S, 57° 31' W Click for more
275839 CTD/STD cast 1985-01-16 22:44Z to 1985-01-17 00:30Z 62° 0' S, 54° 16' W Click for more
275840 CTD/STD cast 1985-01-17 13:10Z to 1985-01-17 14:30Z 62° 59' S, 54° 15' W Click for more
275852 CTD/STD cast 1985-01-17 19:11Z to 1985-01-17 20:38Z 63° 30' S, 54° 15' W Click for more
275864 CTD/STD cast 1985-01-18 07:02Z to 1985-01-18 08:26Z 62° 51' S, 55° 59' W Click for more
275876 CTD/STD cast 1985-01-18 12:30Z to 1985-01-18 14:00Z 62° 30' S, 56° 0' W Click for more
275888 CTD/STD cast 1985-01-18 20:53Z to 1985-01-18 23:20Z 62° 0' S, 56° 0' W Click for more
275907 CTD/STD cast 1985-01-19 12:24Z to 1985-01-19 14:05Z 62° 5' S, 57° 39' W Click for more
275919 CTD/STD cast 1985-01-19 17:55Z to 1985-01-19 20:15Z 62° 14' S, 57° 31' W Click for more
275920 CTD/STD cast 1985-01-20 03:58Z to 1985-01-20 05:38Z 62° 40' S, 57° 16' W Click for more
275932 CTD/STD cast 1985-01-20 11:45Z to 1985-01-20 12:48Z 63° 15' S, 56° 50' W Click for more
275944 CTD/STD cast 1985-01-20 19:38Z to 1985-01-20 20:45Z 63° 11' S, 58° 47' W Click for more
275956 CTD/STD cast 1985-01-22 15:41Z to 1985-01-22 17:08Z 63° 27' S, 59° 50' W Click for more
275968 CTD/STD cast 1985-01-23 00:10Z to 1985-01-23 01:18Z 63° 43' S, 61° 11' W Click for more
275981 CTD/STD cast 1985-01-23 06:15Z to 1985-01-23 08:07Z 63° 22' S, 61° 10' W Click for more
275993 CTD/STD cast 1985-01-23 12:40Z to 1985-01-23 14:35Z 63° 6' S, 61° 0' W Click for more
276007 CTD/STD cast 1985-01-23 18:40Z to 1985-01-23 20:10Z 62° 46' S, 60° 52' W Click for more
276019 CTD/STD cast 1985-01-24 04:00Z to 1985-01-24 05:17Z 63° 12' S, 62° 31' W Click for more
276020 CTD/STD cast 1985-01-24 10:09Z to 1985-01-24 11:19Z 63° 31' S, 62° 13' W Click for more
276032 CTD/STD cast 1985-01-24 14:29Z to 1985-01-24 16:06Z 63° 39' S, 62° 2' W Click for more
276044 CTD/STD cast 1985-01-24 19:40Z to 1985-01-24 20:51Z 63° 51' S, 61° 49' W Click for more
276056 CTD/STD cast 1985-01-25 11:16Z to 1985-01-25 12:59Z 64° 7' S, 63° 5' W Click for more
276068 CTD/STD cast 1985-01-25 19:09Z to 1985-01-25 20:48Z 63° 37' S, 63° 28' W Click for more
276081 CTD/STD cast 1985-01-27 13:28Z to 1985-01-27 17:53Z 63° 0' S, 66° 31' W Click for more
276093 CTD/STD cast 1985-01-27 22:45Z to 1985-01-28 06:17Z 63° 19' S, 66° 9' W Click for more
276100 CTD/STD cast 1985-01-28 12:00Z to 1985-01-28 13:55Z 63° 45' S, 65° 40' W Click for more
276112 CTD/STD cast 1985-01-28 18:37Z to 1985-01-28 20:33Z 64° 6' S, 65° 16' W Click for more
276124 CTD/STD cast 1985-01-29 01:35Z to 1985-01-29 03:29Z 64° 30' S, 64° 45' W Click for more
276136 CTD/STD cast 1985-01-30 22:48Z to 1985-01-31 01:16Z 60° 59' S, 54° 15' W Click for more
276148 CTD/STD cast 1985-01-31 16:40Z to 1985-01-31 20:20Z 59° 58' S, 54° 16' W Click for more
276161 CTD/STD cast 1985-02-01 19:40Z to 1985-02-01 23:44Z 60° 20' S, 58° 54' W Click for more
276173 CTD/STD cast 1985-02-02 06:50Z to 1985-02-02 10:32Z 60° 47' S, 58° 36' W Click for more
276185 CTD/STD cast 1985-02-02 16:10Z to 1985-02-02 19:40Z 61° 16' S, 58° 15' W Click for more
276197 CTD/STD cast 1985-02-03 03:36Z to 1985-02-03 05:12Z 61° 45' S, 57° 54' W Click for more
276204 CTD/STD cast 1985-02-03 15:30Z to 1985-02-03 17:19Z 62° 22' S, 61° 21' W Click for more
276216 CTD/STD cast 1985-02-03 21:58Z to 1985-02-04 00:57Z 62° 7' S, 61° 33' W Click for more
276228 CTD/STD cast 1985-02-04 07:10Z to 1985-02-04 10:55Z 61° 33' S, 61° 57' W Click for more
276241 CTD/STD cast 1985-02-04 17:11Z to 1985-02-04 20:58Z 60° 59' S, 62° 20' W Click for more
276253 CTD/STD cast 1985-02-05 14:39Z to 1985-02-05 18:43Z 61° 28' S, 63° 54' W Click for more
276265 CTD/STD cast 1985-02-06 12:05Z to 1985-02-06 13:37Z 62° 46' S, 62° 37' W Click for more
276277 CTD/STD cast 1985-02-07 01:12Z to 1985-02-07 02:34Z 62° 16' S, 58° 25' W Click for more
276289 CTD/STD cast 1985-02-07 04:44Z to 1985-02-07 07:23Z 62° 25' S, 58° 15' W Click for more
276290 CTD/STD cast 1985-02-07 12:49Z to 1985-02-07 15:10Z 62° 30' S, 57° 48' W Click for more
276308 CTD/STD cast 1985-02-07 16:27Z to 1985-02-07 19:40Z 62° 21' S, 57° 56' W Click for more
276321 CTD/STD cast 1985-02-07 20:56Z to 1985-02-07 22:30Z 62° 12' S, 58° 6' W Click for more
276333 CTD/STD cast 1985-02-07 23:40Z to 1985-02-08 01:02Z 62° 7' S, 57° 46' W Click for more
276345 CTD/STD cast 1985-02-08 02:13Z to 1985-02-08 05:11Z 62° 16' S, 57° 36' W Click for more
276357 CTD/STD cast 1985-02-08 06:26Z to 1985-02-08 08:47Z 62° 25' S, 57° 28' W Click for more
276369 CTD/STD cast 1985-02-08 11:58Z to 1985-02-08 13:30Z 62° 3' S, 57° 28' W Click for more
276370 CTD/STD cast 1985-02-08 14:45Z to 1985-02-08 16:53Z 62° 11' S, 57° 18' W Click for more
276382 CTD/STD cast 1985-02-08 18:18Z to 1985-02-08 20:40Z 62° 20' S, 57° 7' W Click for more
276394 CTD/STD cast 1985-02-08 21:16Z to 1985-02-08 23:45Z 62° 18' S, 57° 0' W Click for more
276401 CTD/STD cast 1985-02-09 00:52Z to 1985-02-09 03:40Z 62° 10' S, 57° 14' W Click for more
276413 CTD/STD cast 1985-02-09 05:11Z to 1985-02-09 06:37Z 62° 3' S, 57° 28' W Click for more
276425 CTD/STD cast 1985-02-09 09:44Z to 1985-02-09 12:05Z 62° 11' S, 56° 43' W Click for more
276437 CTD/STD cast 1985-02-09 13:31Z to 1985-02-09 17:06Z 62° 4' S, 56° 57' W Click for more
276449 CTD/STD cast 1985-02-09 20:56Z to 1985-02-09 22:39Z 61° 50' S, 56° 53' W Click for more
276450 CTD/STD cast 1985-02-09 23:45Z to 1985-02-10 01:32Z 61° 57' S, 56° 40' W Click for more
276462 CTD/STD cast 1985-02-10 02:42Z to 1985-02-10 05:00Z 62° 4' S, 56° 30' W Click for more
276474 CTD/STD cast 1985-02-10 09:41Z to 1985-02-10 11:21Z 61° 36' S, 56° 49' W Click for more
276486 CTD/STD cast 1985-02-10 12:32Z to 1985-02-10 14:16Z 61° 44' S, 56° 37' W Click for more
276498 CTD/STD cast 1985-02-10 15:34Z to 1985-02-10 17:30Z 61° 51' S, 56° 22' W Click for more
276505 CTD/STD cast 1985-02-10 18:44Z to 1985-02-10 21:55Z 62° 0' S, 56° 8' W Click for more

Project Database

# Events Gear Type Parameters Held
74 CTD frame plus rosette sampler Ammonium and ammonia concentration parameters in water bodies
Silicate concentration parameters in the water column
Nitrate concentration parameters in the water column
Nitrite concentration parameters in the water column
Phosphate concentration parameters in the water column
79 Unknown water sampling device Silicate concentration parameters in the water column
Nitrate concentration parameters in the water column
Phosphate concentration parameters in the water column

Note: Parameter terms are taken from the BODC Parameter Discovery Vocabulary XML (SKOS)

References

Track Charts

No track charts currently available

Reports

No reports currently available